SDX01

Last updated on Thu Jan 30 2025 00:02:04 GMT+0000 (Coordinated Universal Time)

1 62459U 24253A 25029.54114733 .00029807 00000+0 93695-3 0 9998 2 62459 54.9982 124.5749 0011681 14.2833 345.8521 15.32734777 4575
UTC large
Height (km)
Speed (km/s)
/
Latitude / Longitude
Inclination (degrees)
Orbital Period (minutes)
Azimuth
Elevation
Range (km)
Doppler Factor

Next 0 passes for location: London (51.5072 / 0.1276)

Sorry there are no passes over London.